Location: Brede
(50.9167°N, 0.6000°E)
Time: 16:44:42
(UTC+00:00)

Meteor 1-22 Rocket - Pass Details

Date: 08 August 2020
Orbit: 787 x 940 km, 81.2° (Epoch: 23 September)

Event Time Altitude Azimuth Distance (km) Brightness Sun altitude
Exits shadow 02:19:48 24° 187° (S) 1,588 5.1 -16.7°
Maximum altitude 02:23:04 84° 101° (E) 801 4.1 -16.4°
Drops below altitude 10° 02:28:25 10° 14° (NNE) 2,380 7.6 -15.9°
Sets 02:30:49 0° 14° (NNE) 3,327 8.6 -15.7°
